sat.trackr.live / text

‹ back to catalog

STARLINK-34523

NORAD 64475 · 2025-133D

PAYLOAD ACTIVE UNKNOWN

§ Identity

Operator
Country
US
Launch date
2025-06-23
Launch site
AFETR
Launch vehicle
Mass (kg)
RCS (m²)

Purposes: comms

External: N2YO · Heavens-Above · Gunter

§ Orbital elements

Epoch: 2026-05-25T04:36:30.634272Z

Period
93.79 min
Inclination
53.1605°
Eccentricity
0.0000715
Mean motion
15.35411245 rev/d
Perigee alt
459.2 km
Apogee alt
460.2 km
Semi-major
6,837.8 km
B*
6.2655e-4
RAAN
119.1561°
Arg perigee
72.9715°
Mean anomaly
287.1366°
Rev number
5,291

§ Raw data

STARLINK-345231 64475U 25133D   26145.19202123  .00021545  00000+0  62655-3 0  99912 64475  53.1605 119.1561 0000715  72.9715 287.1366 15.35411245 52917

JSON: /api/v1/satellites/64475 · /tle

For live sub-satellite position, see the globe view (requires WebGL).

§ Visibility from observer

Set your observer location to see the next 7 days of passes ≥ 10°. The values pass through the URL so the page stays shareable.

No JS? Fill the form by hand. The geolocation button needs JavaScript.